Temp
12 14 15 14 12 13 13 14 14 13 10 10 10 9 12 11 8 8 8 8 8 9 9 10 10 9 8 8 8 8 7 7 6 5 5 5 5 5 5 6 6 8 8 8
13 15 11 11 12 13 13 13 13 11 10 10 9 11 10 10 11 9 10 10 9 9 9 9 10 8 8 7 7 7 7 5 5 4 4 3 4 5 5 5 6 7 7 7
14 12 11 12 12 13 12 13 13 12 9 9 7 14 14 13 11 11 11 11 10 9 9 8 9 8 8 7 7 6 6 5 4 4 4 4 4 4 4 5 6 6 7 8
11 10 11 12 13 12 15 10 10 10 11 14 9 15 14 13 12 14 12 10 9 8 8 8 8 8 7 7 6 6 5 4 4 4 3 3 3 2 3 3 5 6 7 8
12 10 11 12 12 10 12 9 10 10 10 10 11 11 14 12 17 16 13 11 10 9 7 7 7 7 7 6 6 5 5 4 4 3 3 2 2 3 3 4 5 6 7 7
9 8 10 10 9 9 8 9 9 8 9 9 11 11 15 15 17 15 13 11 10 9 8 7 7 6 6 5 5 5 4 3 3 3 3 2 2 2 3 4 4 5 6 7
10 10 8 9 10 9 10 10 10 12 10 13 9 9 14 15 13 12 12 10 10 9 8 6 6 5 5 5 5 5 4 3 3 3 3 2 2 3 3 3 3 4 5 6
11 13 9 8 9 11 10 11 11 13 13 12 9 13 17 12 12 10 8 8 8 8 7 6 6 5 5 5 4 4 3 3 2 3 3 3 2 3 3 4 3 4 5 5
10 10 7 7 7 8 10 10 9 5 0 8 12 12 13 13 12 11 10 9 9 9 8 7 5 5 4 4 4 4 3 3 2 3 3 3 3 3 3 4 3 4 6 6
11 10 6 7 8 8 9 8 10 7 13 12 11 12 15 17 16 15 14 12 11 10 8 5 4 4 4 4 4 4 3 2 2 3 3 3 3 2 3 4 4 4 5 6
7 10 7 7 7 8 7 7 8 9 8 10 9 14 10 14 15 15 13 12 10 9 7 5 4 4 4 4 4 4 3 2 2 3 3 3 2 2 2 3 4 4 5 6
10 8 7 8 6 5 7 10 10 10 9 3 6 12 13 10 11 11 10 9 9 8 7 4 3 3 3 3 3 3 3 3 3 3 2 2 2 2 2 4 5 5 5 6
10 9 8 9 8 6 7 7 9 7 6 5 10 13 11 9 10 10 9 9 8 7 7 4 2 1 2 3 3 3 3 3 3 3 2 2 2 2 2 3 4 5 6 7
10 6 12 15 14 8 5 6 8 8 6 7 8 11 12 9 8 10 8 6 6 4 4 3 2 1 2 3 3 4 3 3 3 3 2 2 2 2 2 4 4 6 6 7
10 10 3 2 5 10 9 6 6 7 9 12 11 8 13 9 9 9 7 8 6 4 3 1 1 -0 1 2 2 3 3 3 2 2 2 2 1 2 2 4 5 5 6 7
8 8 4 5 2 4 8 6 6 5 3 6 5 8 12 12 9 6 7 6 7 7 4 1 0 0 1 2 2 4 4 3 3 3 2 2 1 2 2 3 4 5 6 7
8 6 9 8 1 5 8 10 7 6 6 10 10 14 13 12 11 10 9 8 7 7 6 5 2 1 2 3 3 4 4 3 3 3 2 2 2 2 2 3 4 5 6 6
8 8 7 4 5 11 12 9 9 10 9 7 9 10 10 10 10 8 8 8 7 6 6 5 3 2 4 4 4 4 4 3 3 3 3 2 2 2 3 4 4 4 4 5
7 9 5 10 7 11 13 9 8 10 13 9 10 12 10 10 10 10 8 6 8 6 5 6 6 5 5 5 5 4 3 3 3 3 3 3 3 3 3 3 3 3 3 4
7 8 9 4 12 13 13 10 7 11 13 11 8 9 9 8 13 12 10 8 7 6 6 6 5 5 5 4 4 4 3 3 3 4 4 4 3 3 3 3 4 3 3 3
6 6 9 7 11 9 12 7 8 13 15 11 8 9 7 10 11 10 8 7 7 6 6 5 5 5 5 5 4 4 3 3 5 4 4 4 4 4 4 4 4 4 4 4
7 9 9 6 12 13 7 8 14 13 11 9 8 8 7 9 10 10 8 9 7 5 4 5 4 4 4 4 5 4 4 6 5 4 4 4 4 4 4 4 4 4 4 4
11 12 12 13 13 11 9 12 9 9 10 9 9 8 8 8 9 10 8 8 6 5 4 5 5 4 4 4 5 5 6 5 5 4 4 4 4 4 4 4 4 4 4 4
5 6 9 13 9 9 8 8 8 8 10 9 9 7 7 9 8 9 7 6 5 4 3 5 4 3 3 4 5 6 6 5 5 5 4 4 4 4 3 3 3 3 3 4
6 7 5 7 7 9 9 7 9 7 9 8 7 7 7 7 8 8 7 6 4 4 4 5 5 5 5 5 5 5 6 5 5 5 4 4 4 4 3 3 3 3 3 3
4 4 11 13 9 11 12 10 5 6 7 6 6 7 6 6 6 6 5 3 4 3 4 4 5 5 5 5 5 5 5 6 6 5 4 4 4 3 3 3 3 3 3 3
Height
819 822 822 822 829 830 830 828 829 826 832 833 825 821 796 796 800 801 800 800 800 799 797 798 798 798 798 798 798 797 796 794 793 790 788 785 783 782 782 782 783 783 784 784
822 819 828 831 829 830 831 829 830 829 831 835 827 807 800 796 793 796 794 794 796 796 797 797 797 798 798 798 797 796 795 795 793 790 788 786 783 781 781 781 781 781 781 783
818 826 828 827 831 829 832 828 829 833 836 836 838 800 791 789 793 792 791 791 794 795 797 797 797 797 797 796 796 795 795 794 792 789 787 785 782 781 781 779 779 779 779 780
826 830 828 828 828 833 826 838 838 836 834 824 839 812 795 795 792 788 789 792 794 795 796 796 796 795 795 795 795 794 794 794 792 788 786 784 782 783 782 780 778 776 777 777
824 830 829 827 829 837 832 842 842 841 839 842 832 835 798 798 782 784 787 790 791 791 794 794 794 793 794 794 794 793 793 792 791 789 787 785 784 783 782 779 777 775 774 775
836 835 833 833 840 839 844 842 846 849 847 854 834 834 800 792 782 786 788 789 789 789 790 791 792 792 793 793 793 792 792 792 791 788 787 785 783 782 780 778 775 772 771 772
833 834 837 837 834 841 840 840 852 837 848 832 845 844 796 782 785 787 789 790 788 788 789 790 790 790 791 791 791 791 792 792 790 788 786 785 783 782 781 779 776 772 770 770
824 824 836 840 835 830 837 835 845 841 840 835 845 821 785 786 784 789 792 790 788 787 788 787 787 788 789 790 790 790 791 791 790 788 786 785 783 781 779 778 776 774 770 769
826 828 841 841 842 841 836 843 842 876 916 867 824 808 785 781 781 782 786 787 787 786 786 785 786 786 787 789 789 789 790 791 790 788 786 785 783 781 779 777 777 774 770 769
798 826 847 843 843 842 838 842 842 862 835 839 830 819 792 771 771 771 775 780 782 783 784 784 785 785 786 788 788 788 789 790 790 788 786 785 784 782 777 777 775 774 771 770
805 805 847 844 845 837 847 850 844 844 852 852 860 803 791 777 771 770 774 779 780 781 782 782 782 784 785 786 787 788 788 790 790 789 787 786 785 783 779 778 776 775 772 769
791 810 841 837 844 843 839 826 828 834 850 884 868 815 778 783 779 779 778 779 779 778 779 780 781 782 784 785 786 787 788 789 790 789 789 787 785 784 781 778 777 776 774 771
786 804 834 828 839 844 838 831 827 836 847 865 841 803 779 783 779 777 778 775 775 776 776 779 780 781 782 784 785 786 787 788 789 789 790 789 786 784 783 781 779 778 776 772
778 807 782 782 782 810 839 832 827 827 853 840 829 793 778 783 785 773 775 775 773 774 774 776 777 779 780 782 784 785 786 787 789 789 790 790 789 786 784 782 781 779 777 777
780 785 820 830 816 794 802 824 827 825 809 802 791 807 766 777 776 769 770 768 770 770 770 772 774 775 777 779 781 783 785 787 788 789 790 791 790 789 787 786 784 783 782 781
786 797 813 818 834 821 809 819 821 826 833 818 821 793 764 758 766 772 767 767 765 763 764 766 768 771 773 775 778 780 784 786 788 789 790 791 791 791 790 789 788 786 785 786
785 804 791 807 842 823 808 788 806 808 803 786 794 753 754 756 759 760 756 759 758 757 756 758 760 763 767 771 776 778 781 785 787 789 791 792 792 793 793 792 791 790 790 790
782 785 795 826 823 786 764 771 773 775 776 783 770 757 756 757 756 754 753 754 753 753 751 752 755 759 764 769 774 779 781 784 786 788 791 793 794 794 794 794 794 795 796 796
778 776 810 788 809 771 757 771 775 770 752 759 758 741 751 753 753 746 747 750 747 748 747 747 750 754 760 765 771 777 780 783 786 788 790 793 795 796 797 797 798 798 800 801
777 774 775 812 761 753 740 750 757 754 754 739 746 745 753 755 746 745 744 747 745 743 744 746 750 755 760 764 769 775 779 782 784 787 790 792 795 796 799 800 801 801 802 803
780 785 767 784 759 760 736 753 752 760 741 734 742 744 750 750 741 740 741 742 743 742 743 746 751 754 758 763 768 773 778 780 784 787 790 792 795 797 799 800 801 802 803 805
754 753 761 786 749 736 742 751 732 723 728 733 737 740 743 741 741 738 738 740 740 741 743 747 751 756 760 764 767 771 775 779 783 786 789 792 796 798 799 801 802 803 804 805
723 707 719 719 715 712 720 706 717 717 722 729 731 735 737 739 741 736 737 739 741 739 742 746 749 755 759 763 767 769 774 778 782 785 788 790 794 797 800 801 803 804 805 806
729 725 718 707 713 713 716 711 713 715 715 720 724 729 735 734 738 736 736 737 742 742 741 743 748 753 757 760 764 770 774 778 782 784 787 790 792 795 798 800 802 804 805 806
707 713 720 716 713 709 708 708 704 714 715 718 723 725 728 731 737 733 735 737 741 743 742 742 745 751 755 759 763 767 771 776 780 783 786 789 792 794 796 798 800 802 805 806
696 702 684 676 694 691 689 692 704 711 710 714 720 723 726 726 733 733 734 736 736 743 742 744 744 747 753 758 762 765 768 772 776 779 782 785 789 791 794 796 798 800 802 804
Wind_Speed
3 3 3 3 2 1 2 0 3 4 1 4 6 10 19 9 6 7 7 6 6 6 4 4 2 1 4 5 3 4 7 10 11 12 14 14 14 12 4 2 4 5 7 7
3 2 3 5 3 2 1 1 4 4 1 2 6 18 8 3 3 3 3 4 4 3 4 6 4 3 5 5 4 5 7 8 8 9 10 10 13 7 6 3 4 3 4 5
4 4 4 3 2 2 2 3 2 4 6 1 7 6 5 2 3 3 2 1 2 5 4 4 4 4 6 6 5 5 7 7 7 8 9 8 6 4 5 8 8 7 5 4
3 1 3 3 1 2 3 1 1 2 4 3 5 4 4 4 6 0 4 3 4 5 3 2 5 4 5 4 4 5 6 6 6 7 7 7 6 5 8 12 13 9 5 3
4 5 3 2 1 1 1 1 1 1 1 2 5 2 7 4 2 1 2 3 2 2 3 3 5 3 2 3 3 5 6 5 6 7 6 6 6 7 10 11 11 8 6 5
3 1 2 2 3 2 4 2 3 3 2 3 2 2 5 2 3 2 3 3 0 1 2 3 2 2 2 2 3 5 5 5 5 5 5 6 7 9 10 12 13 13 10 7
2 1 1 2 3 1 1 2 3 5 4 3 1 2 8 5 5 4 5 7 4 3 3 4 5 5 4 3 2 4 5 5 5 5 5 6 7 8 9 11 11 14 14 14
6 3 4 1 1 3 4 3 4 5 1 5 1 5 4 5 3 4 7 8 5 4 3 4 4 5 4 4 2 3 4 5 4 4 5 7 7 7 8 9 10 11 13 13
5 1 2 2 1 2 3 2 2 7 1 3 3 7 8 4 8 6 9 6 6 5 4 4 5 5 5 4 1 2 3 4 4 5 5 7 8 8 7 7 9 11 12 13
7 5 1 1 1 2 1 4 3 3 1 3 5 6 5 2 7 4 5 5 4 2 4 4 5 6 5 4 2 2 2 3 4 5 7 6 6 7 6 8 10 10 11 12
5 4 2 1 5 7 1 0 3 3 3 4 1 6 6 6 5 6 5 4 5 4 5 5 6 7 7 5 3 2 1 2 3 4 5 6 6 6 6 8 8 10 11 12
7 5 4 5 1 1 2 3 4 4 4 1 3 7 2 7 5 4 7 7 5 5 5 5 8 9 9 7 5 3 2 1 1 4 4 6 7 6 6 8 9 11 10 12
8 1 3 5 2 3 4 5 3 5 3 6 5 6 2 5 6 6 7 8 5 5 4 5 6 9 11 10 7 5 3 1 1 4 5 5 6 6 7 7 9 10 12 13
6 3 6 8 6 6 5 5 6 5 4 4 7 10 7 7 6 8 8 8 8 5 5 6 6 9 13 12 11 8 5 3 2 2 5 7 7 6 7 9 11 12 12 13
2 5 3 1 3 2 5 7 11 9 6 6 5 11 11 7 8 9 6 7 7 5 6 6 7 6 15 15 13 11 8 5 3 0 4 8 7 7 8 10 12 13 14 14
1 2 3 2 4 3 2 4 9 4 2 9 2 16 9 13 6 5 9 7 9 7 6 5 6 11 16 20 19 15 12 8 5 2 3 7 7 8 9 13 14 16 17 17
6 5 2 4 2 3 5 11 12 6 6 7 7 17 5 5 7 7 9 8 9 8 7 6 8 14 21 23 21 19 16 11 7 5 3 6 8 9 10 11 15 18 19 19
6 6 2 3 1 5 5 3 7 10 6 14 10 11 8 6 6 9 8 7 8 7 6 6 8 18 23 22 20 18 17 14 10 8 6 5 7 9 10 10 13 15 16 18
1 4 2 5 4 5 1 5 8 9 9 14 20 19 5 3 4 5 1 5 3 4 5 5 12 23 24 25 23 21 18 15 12 10 8 6 6 8 9 10 11 11 11 13
3 2 2 2 5 10 7 6 8 5 7 8 9 7 6 5 2 3 2 2 5 4 3 6 14 21 25 25 25 23 20 18 15 13 10 8 6 6 8 8 8 8 9 11
4 2 10 5 5 6 4 7 8 6 7 5 7 6 7 5 4 3 2 2 2 1 6 9 16 22 27 27 26 23 21 20 15 13 12 10 9 7 6 7 7 8 8 8
9 10 5 3 8 15 6 4 10 6 2 6 5 6 7 5 3 2 1 2 3 6 8 11 15 16 21 26 27 24 23 17 16 15 13 11 9 8 7 6 6 6 5 5
8 7 10 14 6 1 19 7 6 5 7 6 6 6 6 7 5 4 2 1 1 8 10 11 14 16 20 25 26 24 20 19 18 17 14 13 12 10 8 7 6 5 4 4
6 3 4 4 5 7 16 3 5 7 7 6 6 8 7 6 6 4 3 2 1 4 9 13 14 16 20 23 25 19 17 18 18 17 16 14 12 11 10 8 7 5 4 3
5 12 7 5 2 2 6 10 8 7 4 6 6 7 8 8 6 5 3 2 2 3 7 12 15 15 15 19 21 21 16 18 19 17 16 15 13 11 10 8 6 5 4 4
6 7 11 9 10 7 8 11 10 11 12 10 10 7 6 7 7 4 4 4 6 4 7 9 12 11 10 11 16 19 20 19 19 19 18 17 15 14 12 10 9 8 7 6
Wind_Direction
2 88 192 169 131 111 101 179 273 265 6 310 258 276 283 285 252 268 265 253 260 265 278 282 322 223 212 226 250 302 325 329 332 336 342 342 342 342 0 343 314 295 283 278
34 185 137 112 100 105 128 273 287 281 51 332 317 294 288 310 299 256 246 220 235 259 298 305 278 254 250 263 278 309 325 331 333 341 338 332 330 334 334 353 347 336 313 298
168 158 130 109 90 147 222 218 241 238 323 271 305 295 351 12 329 275 216 178 160 229 264 310 300 283 265 267 278 309 324 336 334 340 340 348 356 350 345 345 2 8 350 313
100 144 131 108 183 128 266 147 123 340 18 287 3 278 322 338 314 305 1 328 272 266 295 315 314 313 290 276 271 312 331 335 331 337 348 359 16 352 333 336 343 359 18 341
209 136 141 134 118 115 283 32 34 13 95 345 355 68 270 346 325 107 16 36 37 235 246 283 296 293 276 249 283 319 333 329 328 343 356 360 13 0 347 351 351 1 22 24
85 38 64 89 85 82 143 86 40 45 53 31 325 97 287 228 210 290 259 319 322 166 191 203 200 209 194 235 285 319 332 325 337 345 356 9 17 7 0 2 354 356 5 15
2 43 72 113 104 35 142 66 335 352 8 221 38 9 248 250 229 211 269 279 266 219 191 215 202 211 218 232 283 323 324 323 340 352 360 18 28 23 4 359 351 352 357 3
148 278 169 80 181 196 190 181 155 216 266 277 86 236 246 217 257 252 262 256 272 255 217 234 209 188 201 200 255 310 323 330 337 1 11 14 14 26 20 357 355 354 349 355
136 2 337 55 6 102 190 195 131 103 41 34 259 282 292 258 272 254 253 263 269 248 225 208 172 168 180 187 218 291 321 329 345 1 8 14 21 24 27 5 8 0 355 357
197 92 318 22 196 44 223 143 75 5 89 294 290 284 244 235 223 247 263 262 284 234 200 194 190 182 183 185 187 255 309 323 344 11 0 12 28 20 15 21 12 11 359 3
144 101 271 41 203 180 140 357 56 117 118 175 267 271 213 227 217 227 264 284 279 264 230 205 200 186 179 183 185 229 279 322 0 5 359 1 26 44 13 38 26 22 16 8
199 118 136 203 250 321 282 204 170 126 242 56 140 275 267 248 265 279 279 279 274 271 227 208 197 180 180 185 187 207 226 289 3 356 16 15 29 42 49 42 35 34 27 29
189 230 87 1 4 7 226 197 169 106 91 203 140 259 252 278 268 247 260 284 276 270 239 208 190 193 187 188 189 194 207 230 51 353 32 58 40 43 52 56 53 52 52 52
94 108 156 183 185 129 175 191 180 139 129 183 225 269 273 278 283 281 274 271 279 273 262 221 208 207 192 189 186 183 195 193 120 341 24 61 65 56 62 60 62 56 57 68
144 179 110 7 337 183 147 166 177 193 185 177 245 221 255 229 231 253 255 278 287 278 274 222 209 201 192 185 183 176 185 187 176 331 35 61 69 78 83 85 76 75 74 75
47 216 114 24 354 31 142 166 197 244 286 285 310 275 231 259 236 276 263 268 276 277 260 232 205 195 192 187 183 174 176 182 177 146 60 71 76 85 91 93 94 90 91 91
151 144 123 235 350 54 325 217 183 188 216 187 212 244 212 241 235 261 267 252 266 271 265 230 196 193 192 188 183 175 173 173 172 159 112 76 86 85 89 93 95 92 96 100
150 149 91 151 61 238 210 84 185 195 230 213 272 261 235 248 244 256 243 261 280 276 265 229 188 189 192 183 180 172 171 172 172 164 149 108 91 90 91 93 92 93 97 99
136 145 111 163 199 323 233 197 156 170 265 200 224 251 261 241 299 308 158 205 250 266 265 227 193 181 180 178 173 174 172 173 174 175 164 145 117 105 101 97 91 86 85 89
151 84 156 153 189 219 192 180 153 144 286 213 188 230 206 164 107 252 169 303 297 332 188 177 162 167 174 177 173 174 178 179 182 178 170 161 147 125 116 114 107 93 93 88
133 128 214 195 226 277 231 163 143 125 231 159 165 192 159 188 198 197 278 288 297 92 134 152 165 173 178 175 176 178 181 191 182 176 174 173 166 157 143 129 119 114 110 105
158 159 186 143 224 243 141 70 173 188 82 149 165 183 184 198 247 252 226 155 90 134 132 154 160 172 176 178 178 180 191 185 183 182 180 179 179 172 164 153 138 138 134 125
203 201 184 187 204 190 180 193 181 165 147 186 163 181 179 168 214 188 148 241 211 152 142 162 169 169 178 183 187 185 189 185 184 185 186 182 182 189 192 191 182 172 163 148
232 201 194 128 194 194 201 197 176 178 156 156 163 163 175 165 190 166 120 97 204 158 153 161 166 177 183 189 193 198 187 186 189 188 190 194 195 195 199 204 209 213 215 215
174 148 164 270 240 3 271 219 194 173 157 143 160 168 180 158 199 177 150 125 170 190 160 169 175 190 198 196 197 196 187 189 193 195 196 199 205 209 211 213 222 236 246 251
184 162 187 216 172 175 208 209 160 170 195 188 167 179 191 164 180 161 143 154 134 210 175 182 174 182 197 209 208 204 199 195 197 198 200 203 206 209 217 225 230 242 252 258